{"data":{"norad_id":53200,"epoch":"2026-05-25T02:32:59.715744Z","epoch_age_seconds":68978,"freshness":"FRESH","line1":"1 53200U 22084M   26145.10624671 -.00000828  00000+0 -53330-4 0  9998","line2":"2 53200  97.4529 206.1315 0002331 130.7583 229.3847 15.05654898211530","mean_motion":15.05654898,"eccentricity":0.0002331,"inclination_deg":97.4529,"raan_deg":206.1315,"arg_perigee_deg":130.7583,"mean_anomaly_deg":229.3847,"bstar":-5.333e-5,"rev_number":21153,"period_min":95.639445792843,"perigee_km":547.88129866784,"apogee_km":551.11096123303,"semimajor_km":6927.6331299504,"source":"CELESTRAK","updated_at":"2026-05-25T13:38:17.351046Z"}}